User: anonymous   Login
Location: Charleston
(38.3500°N, 81.6330°W)
Time: 13:52:12
(UTC-04:00)
Language:

Cosmos 1812 Rocket - Orbit

View from above orbital plane
View from above orbital plane
View from above satellite
View from above satellite

Ground track
Ground track

The orbit data is extracted from the following two-line orbital elements,

1 17296U 87003B   14295.83732988  .00000716  00000-0  85557-4 0  7808
2 17296 082.5324 210.2012 0019918 168.1453 251.9865 14.82722152499603
Epoch (UTC): 22 October 2014 20:05:45
Eccentricity: 0.0019918
inclination: 82.5324°
perigee height: 607 km
apogee height: 634 km
right ascension of ascending node: 210.2012°
argument of perigee: 168.1453°
revolutions per day: 14.82722152
mean anomaly at epoch: 251.9865°
orbit number at epoch: 49960

The dashed part of the orbit path shows where the satellite is in the earth's shadow,  

DLR